Regional Weather Roundup
Issued by NWS Cleveland, OH

Home | Current Version | Previous Version | Graphics & Text | Print | Product List | Glossary On
Versions: 1 2 3 4 5 6 7 8 9 10 11 12 13 14 15 16 17 18 19 20 21 22 23 24 25 26 27 28 29 30 31 32 33 34 35 36 37 38 39 40 41 42 43 44 45 46 47 48 49 50
000
ASUS41 KCLE 220410
RWRCLE
OHIO REGIONAL WEATHER ROUNDUP
NATIONAL WEATHER SERVICE WILMINGTON, OH
1100 PM EST SUN DEC 21 2014

NOTE: "FAIR" INDICATES FEW OR NO CLOUDS BELOW 12,000 FEET WITH NO
SIGNIFICANT WEATHER AND/OR OBSTRUCTIONS TO VISIBILITY.

OHZ001>008-015>018-024>027-034-035-043-044-220500-
   NORTHWEST OHIO

CITY           SKY/WX    TMP DP  RH WIND       PRES   REMARKS
DEFIANCE       CLEAR     27  22  81 E6        30.17F WCI  20
FINDLAY        CLEAR     29  22  75 E7        30.16F WCI  22
TOLEDO EXPRESS CLEAR     26  22  84 E5        30.18F FOG     WCI  20
TOLEDO METCALF PTCLDY    25  20  81 E8        30.21S WCI  16
LIMA           CLEAR     30  23  75 SE8       30.14F WCI  22
$$

OHZ009>014-019>023-028>033-038-089-220500-
   NORTHEAST OHIO

CITY           SKY/WX    TMP DP  RH WIND       PRES   REMARKS
CLE-HOPKINS    MOCLDY    26  20  77 E5        30.24F WCI  20
CLE-LAKEFRONT  PTCLDY    30  21  69 E3        30.23S
CUY CO. ARPT   CLOUDY    28  23  80 SE7       30.23  WCI  21
LORAIN-ELYRIA  PTCLDY    25  21  85 SE6       30.21F WCI  18
ASHTABULA      CLOUDY    29  22  75 E6        30.24S WCI  23
AKRON-CANTON   PTCLDY    26  19  74 E6        30.19F WCI  19
WOOSTER        CLEAR     23  19  85 E6        30.19F WCI  16
MANSFIELD      CLEAR     24  21  88 E7        30.16F WCI  16
YOUNGSTOWN     PTCLDY    25  20  81 E7        30.21S WCI  17
$$

OHZ042-051>053-060>062-070>072-077>081-220500-
  SOUTHWEST OHIO

CITY           SKY/WX    TMP DP  RH WIND       PRES   REMARKS
CINC-COVINGTON PTCLDY    29  22  75 E6        30.11F WCI  23
CINC-LUNKEN    CLEAR     22  21  96 CALM      30.16S FOG
HAMILTON       CLEAR     23  20  88 CALM      30.15F
DAYTON         PTCLDY    27  24  89 E6        30.14F WCI  20
WRIGHT-PAT AFB CLEAR     26  22  84 N2        30.14F
DAYTON GENERAL CLEAR     29  25  85 E8        30.12F WCI  21
WILMINGTON     CLEAR     26  23  88 E7        30.13S WCI  18
$$

OHZ036-037-039>041-045>050-054>059-063>069-073>076-082>088-220500-
  CENTRAL AND SOUTHEAST OHIO

CITY           SKY/WX    TMP DP  RH WIND       PRES   REMARKS
COLUMBUS       MOCLDY    27  21  78 E5        30.16F WCI  22
OSU AIRPORT    CLEAR     26  21  81 E5        30.16F WCI  20
BOLTON FIELD   CLEAR     27  24  86 E5        30.16F WCI  22
RICKENBACK AFB CLEAR     24  21  88 NE8       30.16F WCI  15
NEWARK         CLEAR     27  21  78 NE3       30.17F
MARION         CLEAR     25  19  78 SE3       30.17F HAZE
LANCASTER      CLEAR     27  21  78 CALM      30.17F
ZANESVILLE     CLEAR     24  20  84 NE3       30.17F
NEW PHILLY     CLEAR     23  19  85 CALM      30.20F
$$



USA.gov is the U.S. government's official web portal to all federal, state and local government web resources and services.